#timestamp,LO_Frequency,Hit,StdDev 
1693429215.5,286047000.9,N
1693429235.4,286046998.1,N
1693429255.2,286047002.4,N
1693429275.0,286047002.6,N
1693429275.9,286047002.6,N
1693429295.8,286047001.9,N
1693429315.6,286047002.1,N
1693429335.4,286047002.1,N
1693429355.3,286047001.3,N
1693429375.1,286047002.1,N
1693429395.8,286047011.9,Y
1693429415.7,286047001.5,P
1693429435.5,286047001.9,P
1693429455.3,286047001.4,N
1693429475.2,286047001.7,Y
1693429495.0,286047002.0,P
1693429495.9,286047002.0,P
1693429515.7,286047003.3,P
1693429535.6,286047003.6,Y
1693429555.4,286047000.8,P
1693429575.2,286046998.6,N
1693429595.1,286046999.4,N
1693429596.0,286046999.4,N
1693429615.8,286046998.6,N
1693429635.6,286047000.8,N
1693429655.5,286047001.1,N
1693429675.3,286047000.0,N
1693429695.1,286047000.3,N
1693429715.9,286047000.2,N
1693429735.7,286047000.2,N
1693429755.5,286047000.4,N
1693429775.4,286047002.5,N
1693429795.2,286047000.0,N
1693429815.0,286047000.7,N
1693429815.9,286047000.7,N
1693429835.8,286047000.5,N
1693429855.6,286047002.3,N
1693429875.4,286047001.9,N
1693429895.3,286047002.2,N
1693429915.1,286047000.0,N
1693429935.8,286047002.8,N
1693429955.7,286047000.2,N
1693429975.5,286046999.8,N
1693429995.3,286047002.6,N
1693430015.2,286047002.2,N
1693430035.0,286047004.8,Y
1693430035.9,286047004.8,P
1693430055.7,286047003.8,N
1693430075.6,286047003.8,N
1693430095.4,286047003.7,N
1693430115.2,286047004.1,N
1693430135.1,286047001.9,N
1693430136.0,286047001.9,N
1693430155.8,286047000.1,N
1693430175.6,286046998.9,N
1693430195.5,286046998.5,N
1693430215.3,286046998.9,N
1693430235.1,286046998.8,N
1693430255.9,286046999.6,N
1693430275.7,286047000.3,N
1693430295.5,286047000.3,N
1693430315.4,286047000.0,N
1693430335.2,286046998.3,N
1693430355.0,286047000.8,N
1693430355.9,286047000.8,N
1693430375.8,286047000.7,N
1693430395.6,286046999.3,N
1693430415.4,286046999.4,N
1693430435.3,286046999.0,N
1693430455.1,286046999.5,N
1693430475.8,286046998.9,N
1693430495.7,286046999.4,N
1693430515.5,286046997.1,N
1693430535.3,286046997.7,N
1693430555.2,286046997.2,N
1693430575.0,286046997.4,N
1693430575.9,286046997.4,N
1693430595.7,286046996.7,N
1693430615.6,286046996.9,N
1693430635.4,286046999.1,N
1693430655.2,286046998.2,N
1693430675.1,286046998.2,N
1693430676.0,286046998.2,N
1693430695.8,286046998.6,N
1693430715.6,286046998.2,N
1693430735.5,286046998.6,N
1693430755.3,286046999.7,N
1693430775.1,286046998.6,N
1693430795.9,286046998.1,N
1693430815.7,286046998.1,N
1693430835.5,286046998.6,N
1693430855.4,286047000.3,N
1693430875.2,286047000.1,N
1693430895.0,286047002.7,N
1693430896.0,286047002.7,N
1693430915.8,286047001.0,N
1693430935.6,286047002.6,N
1693430955.4,286047002.7,N
1693430975.3,286047000.2,N
1693430995.1,286047000.8,N
1693431015.8,286047000.9,N
1693431035.7,286047000.0,N
1693431085.5,286047000.1,E
1693431095.5,286047002.3,N
1693431115.3,286047002.1,P
1693431135.1,286047002.4,P
1693431155.9,286047004.2,Y
1693431175.7,286046998.6,P
1693431195.5,286046998.2,N
1693431215.4,286046998.6,N
1693431235.2,286046998.5,N
1693431255.0,286046999.3,N
1693431255.9,286046999.3,N
1693431275.8,286046998.1,N
1693431295.6,286047000.9,N
1693431315.4,286047000.5,N
1693431335.3,286047000.5,N
1693431355.1,286047000.5,N
1693431375.8,286046998.4,N
1693431395.7,286047001.1,N
1693431415.5,286046998.5,N
1693431435.3,286047001.1,N
1693431455.2,286046999.8,N
1693431475.9,286047002.0,N
1693431495.7,286047002.0,N
1693431515.6,286046999.8,N
1693431535.4,286047002.8,N
1693431555.2,286047002.3,N
1693431575.1,286047002.3,N
1693431576.0,286047002.3,N
1693431595.8,286047001.4,N
1693431615.6,286047002.1,N
1693431635.5,286047002.1,N
1693431655.3,286047003.7,N
1693431675.1,286047002.5,N
1693431695.9,286047002.4,N
1693431715.7,286047003.8,N
1693431735.5,286047004.1,N
1693431755.4,286047002.5,N
1693431775.2,286047001.6,N
1693431795.0,286047003.4,N
1693431795.9,286047003.4,N
1693431815.8,286047005.5,Y
1693431835.6,286047001.8,P
1693431855.4,286047001.6,P
1693431875.3,286047001.6,P
1693431895.1,286047003.2,Y
1693431915.8,286047002.0,P
1693431935.7,286047001.9,P
1693431955.5,286047002.2,P
1693431975.3,286047002.7,Y
1693431995.2,286046998.6,P
1693432015.0,286047002.7,N
1693432015.9,286047002.7,N
1693432035.7,286047000.4,N
1693432055.6,286047001.1,N
1693432075.4,286047001.0,N
1693432095.2,286047001.1,N
1693432115.1,286047000.3,N
1693432116.0,286047000.3,N
1693432135.8,286047001.0,N
1693432155.6,286046998.7,N
1693432175.5,286046998.4,N
1693432195.3,286046998.3,N
1693432215.1,286047000.7,N
1693432235.9,286047004.1,N
1693432255.7,286046998.3,N
1693432275.5,286046997.0,N
1693432295.4,286046997.8,N
1693432315.2,286046996.6,N
1693432335.0,286046997.1,N
1693432335.9,286046997.1,N
1693432355.8,286046997.1,N
1693432375.6,286046997.7,N
1693432395.4,286046995.1,N
1693432415.3,286046995.2,N
1693432435.1,286046997.2,N
1693432455.8,286046995.4,N
1693432475.7,286046993.4,N
1693432495.5,286046993.8,N
1693432515.3,286046993.8,N
1693432535.2,286046993.7,N
1693432555.0,286046994.5,N
1693432555.9,286046994.5,N
1693432575.7,286046991.8,Y
1693432595.6,286046997.6,P
1693432615.4,286046994.9,P
1693432635.2,286046999.6,N
1693432655.1,286046997.4,N
1693432656.0,286046997.4,N
1693432675.8,286046998.0,N
1693432695.7,286046995.1,Y
1693432715.5,286046999.1,P
1693432735.3,286046998.1,N
1693432755.2,286047001.1,N
1693432775.9,286047000.8,N
1693432795.7,286047000.5,N
